FW0810 Weather Reports


time (UTC)temp
C
wind
direction
speed
KPH
gust
KPH
rain 1hr
cm
rain 24hr
cm
rain mn
cm
humidity
%
barometer
mb
20260502140109 23 112 1.6 9.7 0.00 0.00 0.00 31 1024.4
20260502130110 22 94 3.2 14.5 0.00 0.00 0.00 32 1025.3
20260502123056 23 91 1.6 14.5 0.00 0.00 0.00 33 1025.6
20260502122053 22 95 3.2 11.3 0.00 0.00 0.00 30 1025.7
20260502121552 23 104 1.6 11.3 0.00 0.00 0.00 34 1025.6
20260502121053 22 175 1.6 16.1 0.00 0.00 0.00 32 1025.6
20260502120550 22 115 3.2 16.1 0.00 0.00 0.00 32 1025.7
20260502115550 22 176 1.6 12.9 0.00 0.00 0.00 32 1025.8
20260502115051 22 139 1.6 12.9 0.00 0.00 0.00 32 1025.8
20260502114554 22 109 1.6 11.3 0.00 0.00 0.00 31 1025.8
20260502114048 22 186 1.6 11.3 0.00 0.00 0.00 32 1025.8
20260502113546 22 210 0.0 4.8 0.00 0.00 0.00 33 1025.9
20260502113045 22 27 0.0 8.0 0.00 0.00 0.00 32 1026.0
20260502112546 22 114 1.6 12.9 0.00 0.00 0.00 32 1026.0
20260502112044 22 186 1.6 12.9 0.00 0.00 0.00 34 1026.1
20260502111044 21 113 1.6 9.7 0.00 0.00 0.00 33 1026.1
20260502110542 21 65 1.6 9.7 0.00 0.00 0.00 34 1026.3
20260502110058 21 131 1.6 8.0 0.00 0.00 0.00 34 1026.3
20260502105542 21 270 1.6 6.4 0.00 0.00 0.00 33 1026.4
20260502105044 21 129 1.6 11.3 0.00 0.00 0.00 33 1026.6
20260502104542 22 98 1.6 11.3 0.00 0.00 0.00 33 1026.8
20260502104055 22 93 1.6 9.7 0.00 0.00 0.00 34 1026.9
20260502103040 21 291 1.6 9.7 0.00 0.00 0.00 36 1026.9
20260502102041 21 68 0.0 4.8 0.00 0.00 0.00 33 1026.9
20260502101544 21 100 0.0 4.8 0.00 0.00 0.00 37 1026.9
20260502100542 21 86 1.6 8.0 0.00 0.00 0.00 37 1027.0
20260502091037 20 96 1.6 12.9 0.00 0.00 0.00 38 1027.4
20260502090537 20 297 1.6 17.7 0.00 0.00 0.00 39 1027.5
20260502071530 16 145 0.0 1.6 0.00 0.00 0.00 53 1028.0
20260502071032 15 145 0.0 0.0 0.00 0.00 0.00 52 1028.0
20260502070530 15 145 0.0 0.0 0.00 0.00 0.00 52 1027.9
20260502070030 14 146 0.0 0.0 0.00 0.00 0.00 51 1028.0
20260502065527 14 203 0.0 0.0 0.00 0.00 0.00 51 1028.0
20260502065028 13 203 0.0 0.0 0.00 0.00 0.00 56 1028.0
20260502063540 12 261 0.0 0.0 0.00 0.00 0.00 61 1028.1
20260502063027 11 269 0.0 0.0 0.00 0.00 0.00 64 1028.2
20260502062528 10 269 0.0 0.0 0.00 0.00 0.00 67 1028.2
20260502062028 10 269 0.0 0.0 0.00 0.00 0.00 71 1028.3
20260502061527 9 269 0.0 0.0 0.00 0.00 0.00 74 1028.2
20260502061027 8 270 0.0 0.0 0.00 0.00 0.00 75 1028.2
20260502060529 8 271 0.0 3.2 0.00 0.00 0.00 77 1028.3
20260502060027 7 271 0.0 4.8 0.00 0.00 0.00 78 1028.3
20260502055526 7 268 0.0 4.8 0.00 0.00 0.00 78 1028.4
20260502055026 6 267 0.0 3.2 0.00 0.00 0.00 80 1028.4
20260502054024 6 266 0.0 3.2 0.00 0.00 0.00 79 1028.4
20260502053521 5 262 0.0 3.2 0.00 0.00 0.00 80 1028.4
20260502052518 5 266 0.0 4.8 0.00 0.00 0.00 81 1028.3
20260502052015 5 271 0.0 6.4 0.00 0.00 0.00 82 1028.4
20260502051529 4 271 0.0 6.4 0.00 0.00 0.00 82 1028.3
20260502050509 3 280 0.0 6.4 0.00 0.00 0.00 82 1028.3
20260502050010 3 282 0.0 6.4 0.00 0.00 0.00 83 1028.4
20260502045007 3 277 0.0 4.8 0.00 0.00 0.00 82 1028.3
20260502044506 3 279 0.0 3.2 0.00 0.00 0.00 82 1028.4
20260502042959 3 276 0.0 1.6 0.00 0.00 0.00 81 1028.3
20260502042459 3 278 0.0 1.6 0.00 0.00 0.00 81 1028.3
20260502041457 3 273 0.0 4.8 0.00 0.00 0.00 80 1028.2
20260502040500 3 271 0.0 4.8 0.00 0.00 0.00 81 1028.3
20260502035955 3 274 0.0 4.8 0.00 0.00 0.00 81 1028.2
20260502035453 3 274 0.0 4.8 0.00 0.00 0.00 80 1028.3
20260502034953 3 277 0.0 4.8 0.00 0.00 0.00 81 1028.1
20260502034452 3 266 0.0 3.2 0.00 0.00 0.00 80 1028.2
20260502033951 3 267 0.0 4.8 0.00 0.00 0.00 80 1028.0
20260502033454 3 275 1.6 9.7 0.00 0.00 0.00 79 1028.1
20260502032440 3 267 0.0 3.2 0.00 0.00 0.00 79 1028.0
20260502031427 3 271 0.0 4.8 0.00 0.00 0.00 79 1028.0
20260502030928 3 275 0.0 4.8 0.00 0.00 0.00 79 1028.1
20260502030427 3 276 0.0 0.0 0.00 0.00 0.00 79 1028.1
20260502025928 3 267 0.0 0.0 0.00 0.00 0.00 79 1028.1
20260502025427 3 272 0.0 0.0 0.00 0.00 0.00 79 1028.2
20260502024929 3 271 0.0 0.0 0.00 0.00 0.00 78 1028.2
20260502024427 3 274 0.0 0.0 0.00 0.00 0.00 78 1028.2
20260502023930 3 268 0.0 0.0 0.00 0.00 0.00 78 1028.3
20260502023428 3 268 0.0 0.0 0.00 0.00 0.00 78 1028.2
20260502022928 3 268 0.0 0.0 0.00 0.00 0.00 78 1028.3
20260502022426 3 268 0.0 0.0 0.00 0.00 0.00 78 1028.3
20260502021928 3 282 0.0 0.0 0.00 0.00 0.00 79 1028.2
20260502021425 3 282 0.0 3.2 0.00 0.00 0.00 78 1028.4
20260502020926 3 278 0.0 4.8 0.00 0.00 0.00 78 1028.3
20260502015926 3 270 1.6 6.4 0.00 0.00 0.00 77 1028.3
20260502014926 3 282 1.6 6.4 0.00 0.00 0.00 76 1028.4
20260502013913 3 271 0.0 3.2 0.00 0.00 0.00 75 1028.4
20260502013407 3 252 0.0 4.8 0.00 0.00 0.00 75 1028.4
20260502012357 4 273 0.0 3.2 0.00 0.00 0.00 74 1028.4
20260502011851 4 268 0.0 8.0 0.00 0.00 0.00 73 1028.6
20260502011345 4 261 0.0 8.0 0.00 0.00 0.00 74 1028.4
20260502010837 4 267 1.6 6.4 0.00 0.00 0.00 73 1028.3
20260502010330 4 275 1.6 6.4 0.00 0.00 0.00 73 1028.3
20260502005827 4 289 0.0 4.8 0.00 0.00 0.00 73 1028.4
20260502005319 4 272 1.6 4.8 0.00 0.00 0.00 73 1028.3
20260502004813 4 280 1.6 6.4 0.00 0.00 0.00 72 1028.3
20260502004311 5 277 1.6 6.4 0.00 0.00 0.00 72 1028.4
20260502003814 5 278 0.0 4.8 0.00 0.00 0.00 71 1028.3
20260502003310 5 272 0.0 3.2 0.00 0.00 0.00 71 1028.4
20260502002811 5 272 0.0 3.2 0.00 0.00 0.00 71 1028.3
20260502001811 5 276 0.0 3.2 0.00 0.00 0.00 71 1028.4
20260502001313 5 275 0.0 3.2 0.00 0.00 0.00 72 1028.4
20260502000811 5 274 0.0 6.4 0.00 0.00 0.00 72 1028.6
20260501235813 5 270 1.6 6.4 0.00 0.00 0.00 71 1028.7
20260501235311 5 288 0.0 4.8 0.00 0.00 0.00 69 1028.6
20260501234812 6 262 0.0 3.2 0.00 0.00 0.00 67 1028.6
20260501234312 6 264 0.0 0.0 0.00 0.00 0.00 66 1028.4
20260501233809 6 264 0.0 0.0 0.00 0.00 0.00 66 1028.4
20260501233308 6 264 0.0 0.0 0.00 0.00 0.00 65 1028.4
20260501232806 6 264 0.0 0.0 0.00 0.00 0.00 65 1028.4
20260501232306 6 269 0.0 0.0 0.00 0.00 0.00 66 1028.3
20260501231817 6 267 0.0 0.0 0.00 0.00 0.00 67 1028.4
20260501231305 6 271 0.0 0.0 0.00 0.00 0.00 68 1028.6
20260501230806 5 271 0.0 0.0 0.00 0.00 0.00 69 1028.4
20260501230305 5 274 0.0 0.0 0.00 0.00 0.00 69 1028.4
20260501225805 5 271 0.0 0.0 0.00 0.00 0.00 69 1028.6
20260501225306 5 271 0.0 0.0 0.00 0.00 0.00 69 1028.4
20260501224811 6 271 0.0 0.0 0.00 0.00 0.00 68 1028.6
20260501224302 6 270 0.0 0.0 0.00 0.00 0.00 68 1028.7
20260501223801 6 276 0.0 0.0 0.00 0.00 0.00 67 1028.6
20260501223303 6 271 0.0 0.0 0.00 0.00 0.00 66 1028.4
20260501222801 6 271 0.0 0.0 0.00 0.00 0.00 66 1028.6
20260501222305 6 271 0.0 0.0 0.00 0.00 0.00 65 1028.6
20260501221801 6 271 0.0 0.0 0.00 0.00 0.00 66 1028.6
20260501221301 6 272 0.0 0.0 0.00 0.00 0.00 66 1028.4
20260501220803 6 273 0.0 0.0 0.00 0.00 0.00 67 1028.4
20260501220301 6 273 0.0 0.0 0.00 0.00 0.00 67 1028.4
20260501215755 6 281 0.0 0.0 0.00 0.00 0.00 67 1028.4
20260501213732 7 273 0.0 0.0 0.00 0.00 0.00 66 1028.2
20260501212231 7 271 0.0 0.0 0.00 0.00 0.00 65 1028.2
20260501211228 7 270 0.0 0.0 0.00 0.00 0.00 62 1028.1
20260501210726 7 269 0.0 0.0 0.00 0.00 0.00 59 1028.0
20260501210240 8 269 0.0 0.0 0.00 0.00 0.00 59 1028.0
20260501205724 8 269 0.0 0.0 0.00 0.00 0.00 61 1027.9
20260501204220 8 269 0.0 0.0 0.00 0.00 0.00 62 1027.8
20260501203215 8 266 0.0 0.0 0.00 0.00 0.00 60 1027.8
20260501202711 9 265 0.0 0.0 0.00 0.00 0.00 56 1027.8
20260501202210 9 94 0.0 0.0 0.00 0.00 0.00 54 1027.6
20260501201712 10 94 0.0 0.0 0.00 0.00 0.00 53 1027.6
20260501200709 10 94 0.0 0.0 0.00 0.00 0.00 52 1027.5
20260501200205 10 92 0.0 0.0 0.00 0.00 0.00 50 1027.5
20260501195203 11 92 0.0 0.0 0.00 0.00 0.00 48 1027.4
20260501194702 11 92 0.0 0.0 0.00 0.00 0.00 47 1027.4
20260501194159 11 92 0.0 0.0 0.00 0.00 0.00 46 1027.2
20260501193657 12 92 0.0 0.0 0.00 0.00 0.00 45 1027.2
20260501192700 13 92 0.0 0.0 0.00 0.00 0.00 44 1027.1
20260501192157 13 92 0.0 0.0 0.00 0.00 0.00 43 1027.0
20260501191659 13 92 0.0 0.0 0.00 0.00 0.00 40 1026.9
20260501190155 13 92 0.0 0.0 0.00 0.00 0.00 39 1026.8
20260501185658 13 92 0.0 0.0 0.00 0.00 0.00 38 1026.7
20260501185155 13 94 0.0 0.0 0.00 0.00 0.00 42 1026.8
20260501184657 13 94 0.0 0.0 0.00 0.00 0.00 43 1026.7
20260501183654 13 94 0.0 0.0 0.00 0.00 0.00 42 1026.4
20260501183145 14 94 0.0 0.0 0.00 0.00 0.00 43 1026.5
20260501182638 14 94 0.0 0.0 0.00 0.00 0.00 41 1026.5
20260501182133 15 94 0.0 3.2 0.00 0.00 0.00 37 1026.3
20260501175635 16 173 0.0 0.0 0.00 0.00 0.00 33 1026.2
20260501175131 16 178 0.0 1.6 0.00 0.00 0.00 33 1026.1
20260501174631 16 207 0.0 1.6 0.00 0.00 0.00 32 1026.1
20260501174131 16 150 0.0 1.6 0.00 0.00 0.00 33 1026.1
20260501173635 16 151 0.0 1.6 0.00 0.00 0.00 32 1026.1
20260501173128 17 175 0.0 1.6 0.00 0.00 0.00 32 1026.1
20260501172627 17 151 0.0 3.2 0.00 0.00 0.00 31 1026.0
20260501172127 17 155 0.0 3.2 0.00 0.00 0.00 31 1026.0
20260501171628 17 316 0.0 1.6 0.00 0.00 0.00 32 1026.0
20260501171128 17 321 0.0 0.0 0.00 0.00 0.00 32 1025.8
20260501170629 18 167 0.0 1.6 0.00 0.00 0.00 32 1025.9
20260501170127 18 122 0.0 6.4 0.00 0.00 0.00 31 1025.8
20260501165627 18 259 0.0 6.4 0.00 0.00 0.00 31 1025.7
20260501165130 18 321 0.0 4.8 0.00 0.00 0.00 31 1025.9
20260501164624 19 102 0.0 4.8 0.00 0.00 0.00 31 1025.8
20260501164123 19 314 0.0 3.2 0.00 0.00 0.00 31 1025.8
20260501163623 19 124 0.0 3.2 0.00 0.00 0.00 31 1025.8
20260501163122 19 115 0.0 3.2 0.00 0.00 0.00 30 1025.7
20260501162624 19 323 0.0 8.0 0.00 0.00 0.00 31 1025.7
20260501162123 19 96 0.0 8.0 0.00 0.00 0.00 30 1025.7
20260501161122 19 112 0.0 4.8 0.00 0.00 0.00 29 1025.6
20260501160624 19 121 0.0 4.8 0.00 0.00 0.00 30 1025.6
20260501160120 19 132 1.6 8.0 0.00 0.00 0.00 31 1025.6
20260501154600 20 139 0.0 3.2 0.00 0.00 0.00 32 1025.5
20260501153548 19 183 1.6 11.3 0.00 0.00 0.00 32 1025.4
20260501153039 20 68 1.6 11.3 0.00 0.00 0.00 31 1025.5
20260501152028 20 100 1.6 11.3 0.00 0.00 0.00 34 1025.5
20260501151521 19 132 3.2 16.1 0.00 0.00 0.00 34 1025.5
20260501151017 20 129 3.2 16.1 0.00 0.00 0.00 35 1025.6
20260501150510 20 116 0.0 8.0 0.00 0.00 0.00 36 1025.6
20260501150011 20 326 1.6 8.0 0.00 0.00 0.00 34 1025.6
20260501145511 20 136 0.0 8.0 0.00 0.00 0.00 35 1025.5